Weather History for KLBT - October, 2011

Change the Weather History Date:

Saturday, October 29, 2011

  Actual Average Record
Temperature  
Mean Temperature 47 °F 59 °F  
Max Temperature 59 °F 72 °F 82 °F (2014)
Min Temperature 35 °F 47 °F 28 °F (2001)
Degree Days  
Heating Degree Days 18 7  
Month to date heating degree days 126 107  
Since 1 July heating degree days 133 116  
Cooling Degree Days 0 1  
Month to date cooling degree days 40 71  
Year to date cooling degree days 2297 1892  
Moisture  
Dew Point 42 °F    
Average Humidity 74    
Maximum Humidity 100    
Minimum Humidity 47    
Precipitation  
Precipitation 0.06 in 0.06 in 0.92 in (2003)
Month to date precipitation 2.42 2.43  
Year to date precipitation 36.93 37.62  
Sea Level Pressure  
Sea Level Pressure 29.96 in    
Wind  
Wind Speed 8 mph (NNW)    
Max Wind Speed 20 mph    
Max Gust Speed 25 mph    
Visibility 6 miles    
Events Rain    
T = Trace of Precipitation, MM = Missing Value Source: NWS Daily Summary

Daily Weather History Graph

Daily Weather History Graph

Search for Another Location

Airport or City:

Trip Planner

Search our weather history database for the weather conditions in past years. The results will help you decide how hot, cold, wet, or windy it might be!

Date:

Astronomy

Oct. 29, 2011 Rise Set
Actual Time 7:33 AM EDT 6:25 PM EDT
Civil Twilight 7:07 AM EDT 6:51 PM EDT
Nautical Twilight 6:38 AM EDT 7:21 PM EDT
Astronomical Twilight 6:08 AM EDT 7:50 PM EDT
Moon 10:45 AM EDT (10/29) 8:55 PM EDT (10/29)
Length of Visible Light 11h 43m
Length of Day
10h 52m
Waxing Crescent, 11% of the Moon is Illuminated
Oct 29
Waxing Crescent
Nov 2
First Quarter
Nov 10
Full
Nov 18
Last Quarter
Nov 25
New

Hourly Weather History & Observations

Time (EDT) Temp. Windchill Dew Point Humidity Pressure Visibility Wind Dir Wind Speed Gust Speed Precip Events Conditions
12:54 AM 46.9 °F - 45.0 °F 93% 29.98 in 5.0 mi North 5.8 mph - N/A   Overcast
1:54 AM 46.9 °F - 45.0 °F 93% 29.95 in 5.0 mi NNE 5.8 mph - N/A   Overcast
2:54 AM 48.0 °F - 45.0 °F 89% 29.94 in 5.0 mi NNE 3.5 mph - N/A   Overcast
3:36 AM 46.4 °F 43.5 °F 44.6 °F 93% 29.92 in 2.5 mi North 5.8 mph - N/A   Overcast
4:22 AM 46.4 °F 42.9 °F 44.6 °F 93% 29.92 in 1.8 mi North 6.9 mph - N/A   Overcast
4:40 AM 46.4 °F 42.4 °F 44.6 °F 93% 29.92 in 1.5 mi NW 8.1 mph - N/A   Overcast
4:54 AM 46.0 °F 41.4 °F 45.0 °F 96% 29.92 in 1.5 mi NW 9.2 mph - N/A   Overcast
5:03 AM 46.4 °F 43.5 °F 44.6 °F 93% 29.91 in 1.8 mi NNW 5.8 mph - N/A   Overcast
5:11 AM 46.4 °F 43.5 °F 44.6 °F 93% 29.91 in 2.0 mi NNW 5.8 mph - N/A   Overcast
5:43 AM 46.4 °F 42.9 °F 44.6 °F 93% 29.90 in 4.0 mi NNW 6.9 mph - 0.00 in   Overcast
6:54 AM 46.0 °F 43.1 °F 45.0 °F 96% 29.88 in 7.0 mi North 5.8 mph - N/A   Overcast
7:54 AM 45.0 °F 41.2 °F 44.1 °F 97% 29.91 in 4.0 mi NW 6.9 mph - N/A   Overcast
8:14 AM 44.6 °F 40.2 °F 44.6 °F 100% 29.93 in 1.8 mi NNW 8.1 mph - N/A   Overcast
8:21 AM 44.6 °F 39.2 °F 44.6 °F 100% 29.92 in 1.2 mi NW 10.4 mph - N/A   Overcast
8:34 AM 44.6 °F 40.2 °F 42.8 °F 93% 29.93 in 2.0 mi NNW 8.1 mph - N/A   Overcast
8:45 AM 44.6 °F 38.4 °F 42.8 °F 93% 29.94 in 3.0 mi NNW 12.7 mph - N/A   Overcast
8:54 AM 45.0 °F 38.5 °F 43.0 °F 93% 29.94 in 3.0 mi NNW 13.8 mph - N/A   Overcast
9:26 AM 44.6 °F 41.4 °F 42.8 °F 93% 29.94 in 6.0 mi North 5.8 mph 21.9 mph 0.01 in Rain Light Rain
9:34 AM 44.6 °F 40.7 °F 42.8 °F 93% 29.94 in 2.5 mi NNW 6.9 mph - 0.03 in Rain Heavy Rain
9:38 AM 44.6 °F 41.4 °F 42.8 °F 93% 29.94 in 1.8 mi NNW 5.8 mph - 0.04 in Rain Rain
9:40 AM 44.6 °F 41.4 °F 42.8 °F 93% 29.94 in 1.5 mi NNW 5.8 mph - 0.05 in Rain Rain
9:43 AM 44.6 °F 41.4 °F 42.8 °F 93% 29.94 in 2.0 mi NW 5.8 mph - 0.05 in Rain Rain
9:54 AM 44.1 °F 40.1 °F 43.0 °F 96% 29.96 in 6.0 mi NW 6.9 mph - 0.06 in Rain Light Rain
10:11 AM 44.6 °F 39.7 °F 42.8 °F 93% 29.95 in 10.0 mi NW 9.2 mph - 0.00 in   Overcast
10:50 AM 46.4 °F 41.5 °F 42.8 °F 87% 29.94 in 10.0 mi NNW 10.4 mph - 0.00 in   Overcast
11:51 AM 48.2 °F - 44.6 °F 87% 29.94 in 10.0 mi NW 12.7 mph - N/A   Overcast
11:54 AM 48.0 °F - 44.1 °F 86% 29.94 in 10.0 mi NNW 12.7 mph - N/A   Overcast
12:40 PM 50.0 °F - 42.8 °F 76% 29.95 in 10.0 mi NNW 16.1 mph 21.9 mph N/A   Overcast
12:54 PM 50.0 °F - 43.0 °F 77% 29.95 in 10.0 mi NNW 12.7 mph - N/A   Overcast
1:54 PM 51.1 °F - 41.0 °F 68% 29.94 in 10.0 mi NNW 15.0 mph 20.7 mph N/A   Scattered Clouds
2:21 PM 53.6 °F - 41.0 °F 62% 29.93 in 10.0 mi NNW 17.3 mph 24.2 mph N/A   Mostly Cloudy
2:54 PM 55.9 °F - 41.0 °F 57% 29.94 in 10.0 mi North 13.8 mph 25.3 mph N/A   Overcast
3:16 PM 57.2 °F - 41.0 °F 55% 29.94 in 10.0 mi NNW 10.4 mph 21.9 mph N/A   Mostly Cloudy
3:54 PM 55.9 °F - 41.0 °F 57% 29.95 in 10.0 mi NNW 13.8 mph 23.0 mph N/A   Partly Cloudy
4:54 PM 57.9 °F - 39.0 °F 49% 29.96 in 10.0 mi NNW 12.7 mph 20.7 mph N/A   Clear
5:54 PM 55.9 °F - 36.0 °F 47% 29.98 in 10.0 mi NNW 11.5 mph - N/A   Clear
6:54 PM 48.9 °F - 37.0 °F 64% 30.01 in 10.0 mi NW 4.6 mph - N/A   Clear
7:54 PM 46.0 °F 43.1 °F 37.9 °F 73% 30.04 in 10.0 mi North 5.8 mph - N/A   Clear
8:54 PM 48.0 °F - 36.0 °F 63% 30.07 in 10.0 mi North 10.4 mph - N/A   Clear
9:54 PM 45.0 °F 41.8 °F 32.0 °F 60% 30.10 in 10.0 mi NNW 5.8 mph - N/A   Clear
10:54 PM 39.0 °F 35.7 °F 32.0 °F 76% 30.13 in 10.0 mi NW 4.6 mph - N/A   Clear
11:54 PM 36.0 °F - 33.1 °F 89% 30.14 in 10.0 mi Calm Calm - N/A   Clear